SCP
0 0 0 1 1 1 1 0 0 0 0 0 0 0 0 1 1 1 1 1 1 1 1 0 0 0 0 0 0 0 0 0 0 0 0 0 0 0 0 0 0 0 0
0 0 0 0 0 1 1 1 0 0 0 0 0 0 0 0 1 1 1 1 1 1 1 1 0 0 0 0 0 0 0 0 0 0 0 0 0 0 0 0 0 0 0
0 0 0 0 0 0 0 0 0 0 0 0 0 0 0 0 0 1 1 1 1 1 1 1 0 0 0 0 0 0 0 0 0 0 0 0 0 0 0 0 0 0 0
0 0 0 0 0 0 0 0 0 0 0 0 0 0 0 0 0 0 0 0 0 0 0 0 0 0 0 0 0 0 0 0 0 0 0 0 0 0 0 0 0 0 0
0 0 0 0 0 0 0 0 0 0 0 0 0 0 0 0 0 0 0 0 0 0 0 0 0 0 0 0 0 0 0 0 0 0 0 0 0 0 0 0 0 0 0
0 0 0 0 0 0 0 0 0 0 0 0 0 0 0 0 0 0 0 0 0 0 0 0 0 0 0 0 0 0 0 0 0 0 0 0 0 0 0 0 0 0 0
0 0 0 0 0 0 0 0 0 0 0 0 0 0 0 0 0 0 0 0 0 0 0 0 0 0 0 0 0 0 0 0 0 0 0 0 0 0 0 0 0 0 0
0 0 0 0 0 0 0 0 0 0 0 0 0 0 0 0 0 0 0 0 0 0 0 0 0 0 0 0 0 0 0 0 0 0 0 0 0 0 0 0 0 0 0
0 0 0 0 0 0 0 0 0 0 0 0 0 0 0 0 0 0 0 0 0 0 0 0 0 0 0 0 0 0 0 0 0 0 0 0 0 0 0 0 0 0 0
0 0 0 0 0 0 0 0 0 0 0 0 0 0 0 0 0 0 0 0 0 0 0 0 0 0 0 0 0 0 0 0 0 0 0 0 0 0 0 0 0 0 0
0 0 0 0 0 0 0 0 0 0 0 0 0 0 0 0 0 0 0 0 0 0 0 0 0 0 0 0 0 0 0 0 0 0 0 0 0 0 0 0 0 0 0
0 0 0 0 0 0 0 0 0 0 0 0 0 0 0 0 0 0 0 0 0 0 0 0 0 0 0 0 0 0 0 0 0 0 0 0 0 0 0 0 0 0 0
0 0 0 0 0 0 0 0 0 0 0 0 0 0 0 0 0 0 0 0 0 0 0 0 0 0 0 0 0 0 0 0 0 0 0 0 0 0 0 0 0 0 0
0 0 0 0 0 0 0 0 0 0 0 0 0 0 0 0 0 0 0 0 0 0 0 0 0 0 0 0 0 0 0 0 0 0 0 0 0 0 0 0 0 0 0
0 0 0 0 0 0 0 0 0 0 0 0 0 0 0 0 0 0 0 0 0 0 0 0 0 0 0 0 0 0 0 0 0 0 0 0 0 0 0 0 0 0 0
0 0 0 0 0 0 0 0 0 0 0 0 0 0 0 0 0 0 0 0 0 0 0 0 0 0 0 0 0 0 0 0 0 0 0 0 0 0 0 0 0 0 0
0 0 0 0 0 0 0 0 0 0 0 0 0 0 0 0 0 0 0 0 0 0 0 0 0 0 0 0 0 0 0 0 0 0 0 0 0 0 0 0 0 0 0
0 0 0 0 0 0 0 0 0 0 0 0 0 0 0 0 0 0 0 0 0 0 0 0 0 0 0 0 0 0 0 0 0 0 0 0 0 0 0 0 0 0 0
0 0 0 0 0 0 0 0 0 0 0 0 0 0 0 0 0 0 0 0 0 0 0 0 0 0 0 0 0 0 0 0 0 0 0 0 0 0 0 0 0 0 0
0 0 0 0 0 0 0 0 0 0 0 0 0 0 0 0 0 0 0 0 0 0 0 0 0 0 0 0 0 0 0 0 0 0 0 0 0 0 0 0 0 0 0
0 0 0 0 0 0 0 0 0 0 0 0 0 0 0 0 0 0 0 0 0 0 0 0 0 0 0 0 0 0 0 0 0 0 0 0 0 0 0 0 0 0 0
0 0 0 0 0 0 0 0 0 0 0 0 0 0 0 0 0 0 0 0 0 0 0 0 0 0 0 0 0 0 0 0 0 0 0 0 0 0 0 0 0 0 0
0 0 0 0 0 0 0 0 0 0 0 0 0 0 0 0 0 0 0 0 0 0 0 0 0 0 0 0 0 0 0 0 0 0 0 0 0 0 0 0 0 0 0
0 0 0 0 0 0 0 0 0 0 0 0 0 0 0 0 0 0 0 0 0 0 0 0 0 0 0 0 0 0 0 0 0 0 0 0 0 0 0 0 0 0 0
0 0 0 0 0 0 0 0 0 0 0 0 0 0 0 0 0 0 0 0 0 0 0 0 0 0 0 0 0 0 0 0 0 0 0 0 0 0 0 0 0 0 0
0 0 0 0 0 0 0 0 0 0 0 0 0 0 0 0 0 0 0 0 0 0 0 0 0 0 0 0 0 0 0 0 0 0 0 0 0 0 0 0 0 0 0
Wind_Speed
1 2 2 2 3 3 4 4 4 4 4 5 5 5 5 5 5 4 4 4 4 3 3 3 3 2 2 2 2 2 3 3 7 5 2 3 3 4 5 5 5 5 6
1 1 2 2 2 2 3 3 3 4 4 4 5 5 5 5 5 5 5 4 4 4 3 3 3 2 2 2 2 3 3 3 5 7 5 3 4 4 5 6 5 5 5
0 0 0 1 1 2 2 2 3 3 3 3 4 5 5 5 4 4 4 4 4 4 4 4 3 3 3 2 2 2 2 2 3 5 6 4 4 3 5 5 5 5 5
1 1 1 1 2 2 2 2 2 3 3 3 3 4 4 4 4 4 4 4 3 3 3 3 3 3 3 3 2 2 2 2 3 4 5 5 4 3 3 5 6 5 6
1 2 2 2 1 1 1 1 2 2 2 3 3 3 2 3 3 4 4 4 3 3 2 2 2 2 2 2 1 1 2 2 3 3 5 5 4 4 4 4 7 7 6
2 3 2 1 1 1 1 1 2 2 2 2 3 3 3 2 4 5 4 3 3 3 3 2 1 2 2 2 2 3 3 3 4 4 4 5 6 5 5 5 6 7 7
2 2 2 2 2 2 1 2 2 2 2 2 2 3 3 3 4 4 4 3 3 3 3 2 1 1 1 1 2 3 3 4 5 5 6 6 6 5 6 6 6 6 8
2 2 2 2 2 2 2 2 2 2 2 2 2 3 2 2 4 4 5 3 2 2 2 2 2 2 1 1 1 1 2 2 4 3 4 5 5 5 5 6 7 7 7
2 2 2 2 3 2 3 3 2 2 2 2 2 3 3 2 4 4 4 3 2 2 1 1 2 2 2 2 1 2 3 3 5 6 7 7 9 10 7 4 4 5 6
3 3 2 2 3 4 4 3 2 2 2 2 1 2 2 2 3 4 4 2 2 1 1 1 2 2 3 3 2 3 4 4 3 4 5 6 6 6 7 4 4 4 5
3 2 2 2 3 3 3 2 2 2 2 2 2 1 1 1 2 3 3 2 2 2 2 2 2 4 4 4 4 3 4 4 3 3 4 4 3 3 3 3 3 4 5
2 2 2 2 2 1 2 2 2 3 3 2 2 1 0 0 1 2 3 2 2 2 2 2 2 4 4 4 3 4 5 3 1 2 3 3 3 3 3 3 4 4 5
2 2 2 2 1 1 2 3 2 3 3 3 3 2 2 1 1 2 3 3 2 1 2 3 3 3 3 3 3 4 2 1 1 2 3 4 3 4 3 3 4 4 5
2 2 2 1 0 0 1 2 2 3 3 3 3 3 2 2 1 1 1 2 2 1 1 1 2 2 1 2 2 2 1 1 2 3 3 4 3 3 3 3 4 4 4
2 2 1 1 1 1 1 1 2 2 3 4 3 3 3 3 3 3 2 2 1 1 0 0 0 0 0 1 1 2 2 1 2 2 3 3 3 3 4 3 3 3 3
2 1 1 1 1 1 1 1 2 1 1 1 1 2 2 2 2 4 4 3 2 2 2 0 1 1 1 1 2 2 2 2 2 2 2 3 3 4 4 3 3 3 4
2 2 1 1 1 1 1 1 0 1 2 2 1 1 1 1 2 2 3 3 2 3 1 1 1 1 2 2 2 2 2 2 2 2 3 3 3 4 4 4 4 4 4
2 2 1 1 1 1 1 1 1 1 1 1 1 1 1 0 1 1 2 2 1 1 1 1 2 1 1 2 2 2 2 2 2 3 3 3 3 3 4 4 4 4 4
1 1 1 0 1 1 1 1 1 1 1 1 1 1 1 1 1 1 2 1 1 1 1 1 1 1 2 2 2 2 2 3 3 3 3 3 3 3 4 4 4 4 4
1 1 1 1 1 1 1 1 1 1 1 1 1 1 1 0 0 0 0 1 1 2 2 2 2 2 2 2 2 2 2 3 3 3 3 3 3 3 4 4 4 4 4
1 1 1 1 1 1 1 2 2 1 1 1 1 2 1 1 1 2 1 2 2 2 2 2 2 2 2 2 2 3 3 3 3 3 4 4 3 3 3 3 4 4 4
1 1 1 1 1 1 1 1 1 1 2 1 1 1 1 0 1 1 2 2 2 2 2 2 2 2 3 3 3 3 4 4 4 3 4 4 3 3 3 3 3 3 3
1 1 1 1 1 1 1 1 1 2 2 2 1 1 1 1 2 2 3 3 2 2 2 2 3 3 3 3 3 4 5 5 4 4 4 4 4 3 3 4 4 4 4
1 1 1 1 1 1 2 2 2 2 2 2 2 2 2 2 3 3 3 3 3 3 3 3 3 5 6 4 4 4 4 5 4 4 6 5 5 4 4 4 4 4 4
1 1 1 2 2 2 2 2 2 2 2 2 2 2 2 2 3 3 3 3 3 3 4 4 3 4 6 6 6 5 7 8 7 5 4 4 5 5 4 4 4 4 4
1 2 2 2 2 2 2 2 2 2 2 3 3 3 3 3 3 3 3 3 3 4 4 4 5 6 6 6 7 8 8 8 7 7 5 4 4 4 4 3 4 4 4
Wind_Direction
205 200 186 191 188 182 187 197 196 193 188 189 193 192 194 196 196 199 204 193 201 210 210 210 220 214 219 228 230 231 234 237 261 275 268 286 289 299 307 301 298 296 300
216 196 201 193 180 182 193 196 184 184 186 186 184 187 194 195 195 198 204 200 199 204 207 205 219 219 229 235 236 239 243 241 254 275 283 284 278 287 294 299 300 300 296
131 151 191 202 193 200 199 185 174 173 171 170 174 183 189 190 190 194 196 195 198 203 203 205 213 210 225 232 232 244 262 270 261 268 280 283 283 296 301 296 292 289 297
153 168 210 231 215 204 189 174 173 169 169 173 176 182 185 184 184 183 183 184 189 193 197 200 201 205 214 216 226 236 252 266 272 275 279 285 285 293 296 299 305 298 298
188 206 228 228 204 173 169 169 161 160 170 168 161 164 166 172 178 175 179 179 178 177 176 181 190 197 199 199 224 243 253 262 274 280 286 294 293 308 307 301 298 305 295
201 222 235 217 183 178 184 172 162 168 170 159 163 164 168 184 184 181 174 175 179 178 179 176 176 177 177 207 238 253 251 258 267 272 276 284 294 299 303 305 307 310 303
228 231 226 219 210 204 184 176 190 190 177 176 176 168 173 185 179 177 173 163 172 179 175 171 173 174 180 208 253 276 277 279 274 269 273 279 289 296 301 300 299 294 288
246 251 239 219 222 213 192 202 211 195 187 190 188 180 173 185 178 169 157 152 157 168 178 178 178 191 204 209 220 258 271 280 283 281 271 278 285 292 289 290 293 293 285
264 261 248 221 218 213 212 215 212 195 194 193 182 173 175 187 177 167 149 147 156 170 165 166 182 195 225 244 240 254 271 279 290 289 286 288 293 296 297 296 294 299 298
267 264 262 236 218 217 220 217 208 197 195 174 172 172 176 188 181 165 150 150 167 177 172 182 201 221 244 248 245 251 268 282 291 297 299 303 301 299 299 282 278 283 290
290 286 276 250 236 226 216 205 185 177 166 164 165 156 163 187 192 176 170 174 188 193 208 215 223 240 258 265 270 263 278 296 290 291 295 295 295 295 299 290 280 274 275
310 300 285 268 247 217 194 190 173 166 165 166 162 167 169 179 201 203 203 212 202 205 223 231 240 255 268 275 278 290 301 310 298 296 295 296 298 298 298 294 290 283 271
311 296 289 285 258 201 184 180 172 172 174 180 182 197 209 204 240 234 226 226 224 230 239 250 264 266 275 280 292 308 321 318 296 292 290 293 295 296 302 302 299 294 288
283 289 290 264 246 157 168 173 176 181 186 189 194 201 205 203 211 215 212 215 219 227 235 250 263 268 285 316 319 317 310 283 278 281 291 299 307 308 306 306 306 312 308
282 277 271 243 192 178 166 180 191 203 198 194 199 193 194 211 221 223 210 214 210 221 103 32 344 325 295 316 319 319 315 306 293 289 293 299 304 306 306 308 302 305 296
271 271 251 228 204 179 162 61 50 63 70 128 155 184 224 229 206 201 208 211 201 157 112 212 250 248 254 268 278 296 300 294 292 292 291 292 295 296 299 303 301 297 295
248 253 239 213 194 178 172 170 165 32 41 47 81 150 170 195 188 184 185 179 162 141 141 200 245 257 271 280 282 280 283 293 297 295 295 292 292 292 294 296 299 297 296
250 242 228 209 192 187 185 183 181 183 214 297 325 345 20 35 179 161 146 124 125 125 191 219 239 259 278 285 286 291 296 302 302 298 294 290 286 287 289 289 289 289 293
252 245 235 206 181 183 175 167 176 184 196 221 318 332 1 5 46 71 96 127 195 221 234 247 253 258 268 273 278 282 284 287 292 292 289 286 283 281 282 284 286 286 287
233 228 197 183 174 173 170 171 177 186 199 209 231 263 312 19 91 278 261 216 215 228 231 236 246 249 257 263 269 274 280 282 285 282 283 284 282 277 277 280 282 284 285
214 210 179 174 188 186 183 185 186 189 204 224 250 257 250 207 223 230 230 231 232 236 237 240 246 248 250 254 260 265 268 271 271 272 275 275 275 276 278 280 282 280 282
177 185 184 195 199 190 191 193 187 191 203 215 259 278 273 271 240 248 251 253 247 242 236 236 246 247 242 240 245 254 260 264 266 268 273 275 274 274 276 277 278 282 283
173 176 182 193 194 190 193 197 197 203 214 223 233 246 241 238 245 251 256 257 257 255 247 238 246 257 255 247 240 239 248 255 256 256 264 270 270 269 266 265 267 272 275
182 183 185 195 198 201 207 215 218 218 219 229 236 238 240 244 251 258 261 263 262 260 253 246 246 252 259 261 256 250 250 255 254 252 252 255 259 260 259 262 263 262 265
194 198 199 199 205 214 219 224 227 229 231 235 239 244 248 250 255 261 264 266 267 267 266 261 256 256 258 261 264 263 264 267 264 255 250 249 249 249 251 256 260 263 262
207 209 214 210 214 221 225 231 236 238 239 243 243 244 247 251 255 259 262 264 268 271 272 268 263 263 266 267 268 271 270 269 265 260 248 243 242 246 245 250 253 255 256